TimeCDT,TemperatureF,Dew PointF,Humidity,Sea Level PressureIn,VisibilityMPH,Wind Direction,Wind SpeedMPH,Gust SpeedMPH,PrecipitationIn,Events,Conditions,WindDirDegrees,DateUTC
12:18 AM,48.2,46.4,93,29.66,3.0,NNE,11.5,-,0.08,Rain,Rain,30,2013-03-24 05:18:00
12:33 AM,48.2,48.2,100,29.69,4.0,Variable,3.5,-,0.09,Rain,Light Rain,0,2013-03-24 05:33:00
12:53 AM,48.9,48.0,97,29.68,5.0,East,6.9,-,0.11,Rain,Rain,100,2013-03-24 05:53:00
1:02 AM,48.2,48.2,100,29.66,3.0,ESE,8.1,-,0.03,Rain,Rain,110,2013-03-24 06:02:00
1:29 AM,48.2,48.2,100,29.65,7.0,East,8.1,-,0.05,,Overcast,90,2013-03-24 06:29:00
1:39 AM,48.2,48.2,100,29.62,4.0,East,8.1,-,0.06,Rain,Rain,80,2013-03-24 06:39:00
1:51 AM,48.2,48.2,100,29.66,4.0,Calm,Calm,-,0.07,Rain,Light Rain,0,2013-03-24 06:51:00
1:53 AM,48.9,48.0,97,29.66,4.0,Calm,Calm,-,0.07,Rain,Light Rain,0,2013-03-24 06:53:00
2:13 AM,48.2,48.2,100,29.62,4.0,ESE,9.2,-,0.01,Rain,Light Rain,120,2013-03-24 07:13:00
2:53 AM,48.9,46.9,93,29.61,7.0,East,3.5,-,0.01,,Overcast,100,2013-03-24 07:53:00
3:06 AM,48.2,48.2,100,29.61,6.0,Calm,Calm,-,N/A,,Overcast,0,2013-03-24 08:06:00
3:22 AM,48.2,48.2,100,29.61,6.0,Calm,Calm,-,N/A,,Overcast,0,2013-03-24 08:22:00
3:34 AM,48.2,48.2,100,29.61,6.0,NNW,5.8,-,N/A,,Overcast,340,2013-03-24 08:34:00
3:53 AM,48.9,48.0,97,29.61,5.0,NW,5.8,-,N/A,,Overcast,320,2013-03-24 08:53:00
4:34 AM,48.2,48.2,100,29.59,3.0,Calm,Calm,-,N/A,,Overcast,0,2013-03-24 09:34:00
4:53 AM,48.9,48.0,97,29.60,3.0,NNW,5.8,-,N/A,,Overcast,330,2013-03-24 09:53:00
5:24 AM,48.2,48.2,100,29.62,2.0,NW,3.5,-,N/A,,Overcast,310,2013-03-24 10:24:00
5:32 AM,48.2,48.2,100,29.62,1.5,NW,4.6,-,N/A,,Overcast,320,2013-03-24 10:32:00
5:53 AM,48.9,48.0,97,29.62,1.0,Calm,Calm,-,N/A,,Overcast,0,2013-03-24 10:53:00
6:15 AM,48.2,48.2,100,29.62,0.8,WNW,3.5,-,N/A,,Overcast,300,2013-03-24 11:15:00
6:53 AM,48.9,48.0,97,29.62,0.5,Calm,Calm,-,N/A,Fog,Fog,0,2013-03-24 11:53:00
7:01 AM,48.2,48.2,100,29.61,0.2,Calm,Calm,-,N/A,Fog,Fog,0,2013-03-24 12:01:00
7:42 AM,48.2,48.2,100,29.63,0.5,WNW,5.8,-,0.01,Fog,Fog,290,2013-03-24 12:42:00
7:53 AM,48.9,48.0,97,29.62,0.5,NW,5.8,-,0.01,Fog,Fog,310,2013-03-24 12:53:00
8:09 AM,48.2,46.4,93,29.56,0.8,NE,10.4,-,N/A,Thunderstorm,Overcast,40,2013-03-24 13:09:00
8:24 AM,48.2,48.2,100,29.54,0.5,Variable,3.5,-,N/A,Fog,Fog,0,2013-03-24 13:24:00
8:53 AM,48.9,48.0,97,29.54,1.0,Calm,Calm,-,N/A,,Overcast,0,2013-03-24 13:53:00
9:01 AM,48.2,48.2,100,29.55,0.8,South,6.9,-,N/A,,Overcast,170,2013-03-24 14:01:00
9:08 AM,48.2,48.2,100,29.54,1.0,SSE,9.2,-,N/A,,Overcast,160,2013-03-24 14:08:00
9:30 AM,50.0,48.2,94,29.54,2.5,South,10.4,16.1,N/A,,Overcast,170,2013-03-24 14:30:00
9:37 AM,50.0,50.0,100,29.53,3.0,South,6.9,16.1,N/A,,Overcast,170,2013-03-24 14:37:00
9:53 AM,51.1,50.0,96,29.53,5.0,South,8.1,-,N/A,,Overcast,180,2013-03-24 14:53:00
10:53 AM,51.1,50.0,96,29.54,2.5,SW,13.8,19.6,0.00,Rain,Light Rain,230,2013-03-24 15:53:00
11:10 AM,51.8,50.0,94,29.55,3.0,WSW,13.8,23.0,0.02,Rain,Light Rain,240,2013-03-24 16:10:00
11:36 AM,48.2,46.4,93,29.56,2.5,West,19.6,36.8,0.04,Rain,Light Rain,260,2013-03-24 16:36:00
11:39 AM,48.2,46.4,93,29.56,4.0,WSW,19.6,36.8,0.04,Rain,Light Rain,250,2013-03-24 16:39:00
11:53 AM,48.0,45.0,89,29.56,10.0,West,18.4,29.9,0.04,Rain,Light Rain,260,2013-03-24 16:53:00
12:53 PM,50.0,43.0,77,29.55,10.0,West,21.9,29.9,N/A,,Overcast,260,2013-03-24 17:53:00
1:10 PM,50.0,42.8,76,29.55,10.0,WSW,26.5,36.8,N/A,,Overcast,240,2013-03-24 18:10:00
1:53 PM,48.0,37.0,66,29.57,10.0,WSW,26.5,43.7,N/A,,Overcast,250,2013-03-24 18:53:00
2:27 PM,44.6,35.6,71,29.59,10.0,WSW,26.5,38.0,N/A,,Overcast,250,2013-03-24 19:27:00
2:53 PM,45.0,35.1,68,29.60,10.0,WSW,24.2,28.8,N/A,,Overcast,250,2013-03-24 19:53:00
3:42 PM,44.6,33.8,66,29.60,10.0,West,31.1,36.8,N/A,,Overcast,270,2013-03-24 20:42:00
3:53 PM,44.1,33.1,65,29.61,10.0,WSW,26.5,36.8,N/A,,Overcast,250,2013-03-24 20:53:00
4:50 PM,42.8,32.0,66,29.64,10.0,West,24.2,36.8,N/A,,Overcast,270,2013-03-24 21:50:00
4:53 PM,42.1,32.0,67,29.65,10.0,West,32.2,42.6,N/A,,Overcast,270,2013-03-24 21:53:00
5:19 PM,42.8,30.2,61,29.66,10.0,West,25.3,38.0,N/A,,Overcast,270,2013-03-24 22:19:00
5:53 PM,41.0,28.9,62,29.70,10.0,West,23.0,39.1,N/A,,Overcast,280,2013-03-24 22:53:00
6:53 PM,39.0,28.0,65,29.75,10.0,West,27.6,34.5,N/A,,Overcast,280,2013-03-24 23:53:00
7:53 PM,39.0,27.0,62,29.80,10.0,WNW,19.6,31.1,N/A,,Overcast,290,2013-03-25 00:53:00
8:53 PM,37.9,27.0,65,29.83,10.0,WNW,20.7,28.8,N/A,,Overcast,290,2013-03-25 01:53:00
9:53 PM,37.9,26.1,62,29.86,10.0,WNW,17.3,26.5,N/A,,Overcast,290,2013-03-25 02:53:00
10:53 PM,37.0,26.1,65,29.88,10.0,WNW,13.8,28.8,N/A,,Overcast,290,2013-03-25 03:53:00
11:53 PM,36.0,25.0,64,29.89,10.0,WNW,21.9,29.9,N/A,,Overcast,290,2013-03-25 04:53:00